Location: Crescent
(42.8242°N, 73.7329°W)
Time: 13:00:11
(UTC+00:00)

Explorer 7 - Pass Details

Date: 20 February 2026
Orbit: 430 x 540 km, 50.2° (Epoch: 17 March)

Event Time Altitude Azimuth Distance (km) Brightness Sun altitude
Rises 22:00:41 0° 292° (WNW) 2,466 11.0 4.9°
Maximum altitude 22:06:08 25° 4° (N) 985 8.0 3.9°
Drops below altitude 10° 22:09:19 10° 62° (ENE) 1,669 8.7 3.4°
Sets 22:11:49 0° 76° (ENE) 2,574 9.5 2.9°
